Showing default

OPS 9311 (IDSCS 1), 2215

Orbit data source: Space-Track

OPS 9311 (IDSCS 1), 2215 is a payload satellite owned by USAF SSD (US) in GEO that was launched on Thu, 16 Jun 1966 UTC via a TITAN IIIC launch vehicle from the Air Force Eastern Test Range (AFETR). Payload-class satellites include a variety of spacecraft equipped with specific instruments for various scientific and technological missions. These include communications satellites like Starlink; space stations such as the ISS; scientific satellites like the Hubble; Earth observation satellites from companies like Planet Labs, Umbra, and HawkEye 360; GPS; miniature CubeSats for education and research; and military/defense satellites.

Not visible in the next 10 days
Identifier
2215, 1966-053B
Orbit
GEO
Country
Flag of USUS
Related business
Manufacturer
Philco-Ford WDL
Mission
Non-operational spacecraft
Bus & Motor
IDCSP, Unknown motor
Mass
45 kg wet, 45 kg dry
Launch date (UTC)
1966-06-16 (60 years ago)
Launch vehicle
TITAN IIIC
Launch site
Air Force Eastern Test Range (AFETR)
Object type
Payload
Rocket body
Debris
Shape & HBR
ICO POLY, 0.5 m
Radar Cross Section
Medium (>0.1 m² and <1 m²)

Expand to show TLE details & history
Last TLE update: 1 day ago

TLE from 1 day ago
0 OPS 9311 (IDSCS 1)
1 02215U 66053B   26253.06150329 -.00000106  00000-0  00000-0 0  9992
2 02215   8.8231  42.8197 0030762 225.4705 134.3943  1.07909043135287
Epoch: 2026-09-10T01:28Z
TLE epoch observation values (Epoch: 2026-09-10T01:28:33.884Z)
Latitude
-0.00001°
Longitude
31.68104°
Altitude
33,858.35 km
Speed
3.144 km/s
True Right ascension
02h 51m 42s
True Declination
0° 00' 00"
Sunlit
Object was in daylight at epoch
Visualization orbit readout
Latitude
Unknown
Longitude
Unknown
Altitude
Unknown
Speed
Unknown
Apparent Right ascension
Unknown
Apparent Declination
Unknown
Sunlit
N/A
Visualization observer readout
Local Sidereal Time
01:16:41
Azimuth
Unknown
Elevation
Unknown
Doppler factor
Unknown
Orbital elements
Apogee altitude
33,897.485 km
Perigee altitude
33,650.453 km
Semi-major axis
40,152.106 km
Eccentricity
0.00308
Inclination
8.8231°
RAAN
42.8197°
Arg. of periapsis
225.4705°
True anomaly
134.6455°
Mean anomaly
134.3943°
Eccentric anomaly
134.51997°
Mean motion
0.26976 °/min
Orbital period
1,334.51 mins
BSTAR
0
Loading maneuver chart data...
Computing Atmospheric mass density...
Loading historical data...
Loading historical data...
Loading historical data...
Loading historical data...
Loading historical data...
Loading historical data...
Loading historical data...

Documentation

Showing up to 5 results
|